Vertical_Velocity
-2 -1 -0 -0 0 -1 1 0 -1 -1 -2 2 1 -1 -0 -2 -1 -0 -3 -1 2 1 -3 1 -1 -3 -0 1 -3 -1 0 -3 -1 1 -2 -1 -1 -2
-1 -2 -1 0 1 0 -1 -2 -1 -3 -3 2 1 1 2 -1 -1 -0 -2 -3 -0 3 2 -2 -1 -1 -3 -1 3 -0 -0 1 -1 -2 -3 -3 -1 -0
0 0 0 -1 1 2 -1 -1 -0 -0 -3 -2 0 0 1 1 0 -1 2 -1 -1 -1 -3 2 -0 2 -1 -1 0 -0 0 1 -1 -2 -1 -3 -2 -2
1 -0 0 1 0 1 0 -0 1 -1 -1 0 1 2 4 0 -1 -1 2 3 -0 -1 4 -1 0 0 2 -1 -2 -1 1 1 2 0 2 1 0 -0
1 -0 1 -0 1 1 -1 -1 1 1 0 5 -1 2 -2 2 -1 -1 1 3 -3 3 -1 0 0 -2 2 1 -1 -0 -0 -1 0 -0 -1 -1 -1 -1
1 1 2 -1 1 2 1 1 -1 0 2 -0 3 0 3 2 2 2 -3 -0 3 1 0 2 0 -0 -1 -1 -0 -1 1 1 1 0 -0 -1 -1 -1
-0 -0 -1 1 -1 1 -1 1 4 1 0 -1 4 1 -1 4 4 -5 2 -1 3 -1 -0 1 1 2 -0 -3 -0 -0 -1 -2 -2 -1 -1 -2 -2 -2
-1 1 -0 0 1 0 2 -0 4 0 -1 0 2 1 6 2 -2 3 1 -0 3 -0 0 0 1 0 -1 -2 -1 -1 -0 -1 -1 -2 -2 -1 -1 -1
-1 -1 -2 -1 0 2 4 4 2 2 1 0 2 2 -0 2 0 2 -2 2 4 1 -0 1 -0 -1 -0 1 1 -0 -1 -2 -2 -1 -1 -1 -2 -1
-2 -1 0 1 2 4 2 3 -0 2 5 -0 2 1 -2 1 -2 1 1 2 2 1 0 1 -0 -1 -1 -1 -1 0 -0 -2 -2 -0 0 -0 1 1
0 1 -0 0 2 2 7 5 5 -0 1 2 -1 3 -1 -0 1 1 0 2 1 -0 -0 2 1 -0 -0 1 -0 -0 -1 -2 -2 -2 -1 -1 -1 -1
-2 -2 1 2 0 -2 -1 1 10 8 3 -0 7 3 -1 -0 1 0 1 1 -1 1 -1 -0 -0 -0 -1 0 0 1 1 -1 -0 0 -1 -1 1 0
-1 -0 1 1 4 -1 1 2 1 0 2 4 2 -0 -2 -1 -1 1 1 1 -0 -0 -1 -1 0 -1 -2 0 -1 -1 0 -2 0 -0 -1 -0 -0 -1
-0 1 0 -2 4 2 1 2 2 5 4 1 -0 -1 0 1 1 0 1 -0 -0 -2 -1 0 -3 -1 -1 -2 -1 -1 -0 0 -0 -1 -1 -1 -1 -1
-2 4 -1 0 -0 3 2 4 5 6 2 -0 0 1 -1 0 1 1 1 1 2 -0 -2 -1 -0 -1 -2 -2 -2 2 -0 0 -3 1 0 -1 -2 -2
1 1 -2 -2 -1 2 4 4 2 1 2 1 2 -0 -1 0 -1 1 0 1 1 1 1 -1 -1 0 0 -0 -3 -5 2 -3 5 3 -1 -1 -1 -1
2 0 1 1 -0 1 4 3 1 -0 1 2 -0 1 1 -1 -1 1 1 -1 -2 -0 1 -0 0 -1 -1 -1 -2 -1 -4 -4 -0 -2 1 -5 -3 -0
0 1 1 -0 2 2 2 2 2 1 -1 1 -0 -2 1 0 0 -2 1 -1 -1 0 -1 2 2 1 2 -4 0 -4 -1 -1 0 -3 1 -1 -6 -4
-2 3 0 1 1 2 1 1 -1 -1 2 -2 -1 -1 -1 -2 -0 0 -1 1 -1 -0 -1 -2 -1 4 2 -3 3 -4 -1 1 -2 -2 1 5 1 -10
-4 -2 -1 -1 -1 1 3 2 1 1 2 1 1 1 1 0 2 -1 1 1 -1 -3 -2 0 2 3 -2 -0 -3 -9 2 -1 0 -3 -2 5 9 1
0 -1 -1 0 1 0 -1 1 2 1 3 0 -0 1 1 3 -0 -1 -1 -0 0 -2 -1 -4 4 3 -1 1 -2 -6 -5 2 1 2 -0 4 -1 2
-0 1 -2 1 0 1 0 0 1 -0 -0 1 1 1 -0 1 -0 -1 0 -0 0 -0 -1 -2 -1 5 1 2 -2 -3 -5 -5 -2 -1 -1 3 3 6
0 -0 -2 1 0 0 0 0 2 1 2 2 1 -0 -1 1 -0 1 1 0 -1 2 1 -2 -2 0 2 4 6 1 -3 -3 -2 -3 -4 1 2 5
Height
5764 5763 5761 5760 5758 5757 5755 5752 5750 5750 5749 5747 5744 5742 5740 5739 5737 5735 5731 5728 5727 5726 5725 5724 5720 5718 5717 5715 5713 5712 5711 5710 5709 5707 5706 5705 5704 5702
5752 5751 5750 5749 5747 5746 5744 5742 5741 5739 5738 5738 5735 5732 5731 5730 5728 5725 5724 5721 5720 5718 5717 5716 5713 5711 5711 5709 5707 5706 5705 5704 5702 5701 5699 5699 5698 5697
5741 5739 5738 5738 5736 5735 5734 5733 5731 5730 5729 5727 5725 5724 5722 5721 5718 5716 5715 5713 5712 5712 5710 5708 5706 5704 5703 5703 5701 5700 5699 5698 5696 5695 5694 5693 5692 5691
5728 5726 5726 5726 5725 5723 5722 5721 5719 5719 5717 5716 5714 5713 5712 5710 5709 5706 5705 5704 5704 5703 5702 5701 5699 5698 5697 5695 5694 5694 5693 5692 5691 5689 5688 5687 5685 5685
5714 5713 5713 5713 5712 5711 5709 5709 5708 5706 5705 5704 5703 5703 5701 5700 5699 5698 5697 5696 5696 5696 5695 5693 5692 5691 5690 5689 5688 5687 5686 5685 5683 5682 5682 5681 5679 5678
5701 5701 5700 5699 5699 5698 5696 5696 5695 5694 5693 5692 5692 5691 5690 5690 5689 5689 5688 5688 5689 5688 5687 5686 5685 5684 5683 5682 5681 5680 5679 5678 5677 5676 5675 5674 5672 5671
5689 5688 5688 5687 5686 5685 5684 5683 5682 5682 5681 5682 5682 5681 5680 5679 5680 5679 5679 5681 5682 5680 5679 5679 5678 5677 5676 5675 5674 5673 5671 5670 5669 5669 5668 5667 5665 5664
5677 5675 5674 5675 5673 5673 5672 5672 5672 5671 5671 5672 5672 5670 5670 5670 5670 5672 5672 5673 5674 5673 5671 5671 5670 5670 5669 5668 5667 5665 5664 5663 5662 5661 5660 5659 5657 5655
5664 5663 5663 5662 5661 5662 5661 5661 5661 5660 5661 5661 5660 5661 5660 5660 5661 5663 5663 5665 5665 5664 5664 5663 5663 5663 5661 5661 5660 5658 5657 5656 5655 5653 5652 5651 5649 5647
5652 5651 5651 5649 5648 5648 5649 5649 5649 5649 5649 5650 5650 5650 5651 5652 5653 5654 5656 5656 5657 5656 5656 5655 5655 5654 5654 5653 5652 5650 5649 5648 5647 5646 5644 5642 5640 5639
5640 5640 5639 5638 5637 5636 5636 5636 5636 5638 5639 5639 5639 5641 5641 5643 5645 5647 5648 5649 5648 5648 5647 5647 5647 5646 5645 5644 5643 5641 5640 5640 5638 5637 5635 5632 5630 5628
5628 5627 5627 5626 5625 5625 5625 5625 5627 5628 5628 5629 5631 5632 5633 5635 5637 5638 5640 5640 5640 5639 5639 5639 5638 5637 5637 5635 5634 5632 5631 5630 5629 5627 5624 5622 5620 5618
5618 5618 5617 5616 5615 5615 5616 5617 5618 5619 5620 5621 5622 5624 5626 5628 5629 5630 5631 5631 5631 5631 5631 5629 5629 5628 5627 5626 5624 5622 5621 5620 5618 5616 5613 5610 5608 5607
5611 5609 5608 5608 5606 5607 5608 5609 5610 5611 5612 5613 5614 5616 5618 5620 5621 5622 5623 5623 5622 5622 5621 5620 5619 5618 5617 5616 5614 5612 5611 5609 5607 5604 5601 5598 5596 5594
5602 5601 5600 5599 5599 5600 5601 5602 5603 5603 5604 5604 5606 5608 5610 5611 5613 5613 5614 5613 5613 5613 5611 5610 5608 5607 5606 5605 5604 5602 5600 5597 5594 5592 5588 5586 5584 5581
5595 5593 5592 5591 5592 5593 5594 5594 5594 5595 5595 5597 5599 5600 5601 5603 5604 5604 5604 5603 5603 5602 5601 5600 5598 5596 5595 5593 5591 5590 5588 5585 5583 5580 5576 5573 5571 5569
5587 5587 5586 5586 5586 5586 5586 5587 5587 5588 5588 5590 5590 5591 5593 5593 5593 5594 5593 5593 5592 5591 5590 5588 5587 5585 5584 5582 5580 5577 5575 5573 5571 5568 5564 5560 5559 5556
5581 5580 5580 5579 5579 5579 5580 5580 5580 5580 5581 5581 5582 5582 5583 5583 5583 5582 5582 5581 5580 5579 5578 5577 5576 5574 5572 5570 5568 5565 5563 5561 5559 5555 5552 5547 5545 5543
5573 5574 5573 5573 5573 5572 5572 5572 5572 5573 5573 5572 5572 5572 5572 5572 5572 5572 5571 5570 5569 5568 5567 5566 5564 5563 5561 5558 5557 5553 5552 5549 5546 5543 5540 5536 5529 5526
5566 5566 5565 5565 5565 5565 5565 5564 5564 5564 5564 5563 5563 5562 5562 5562 5562 5561 5560 5560 5558 5557 5556 5555 5554 5551 5549 5547 5544 5541 5539 5537 5534 5530 5527 5524 5519 5512
5558 5557 5557 5556 5556 5556 5555 5555 5554 5554 5553 5553 5552 5552 5551 5551 5551 5550 5549 5549 5547 5546 5545 5543 5542 5540 5537 5535 5532 5529 5527 5524 5521 5517 5513 5509 5505 5499
5547 5547 5546 5546 5545 5545 5544 5544 5543 5543 5542 5542 5541 5541 5540 5540 5540 5539 5538 5537 5536 5535 5533 5531 5530 5528 5526 5523 5520 5516 5513 5510 5506 5503 5499 5495 5491 5486
5535 5535 5535 5534 5534 5533 5533 5532 5532 5532 5531 5531 5530 5530 5529 5529 5528 5527 5526 5525 5524 5522 5521 5519 5517 5516 5513 5511 5508 5503 5499 5494 5490 5487 5483 5479 5476 5473